When you browse on this site, cookies collect data to enhance your experience and personalize the content and advertising you see.
Visit our Privacy Policy to learn more. By continuing to use the site, you agree to this use of cookies and data.
  • In Romania
  • List of Countries
  • For 7 days
  • Water Temperature
  • Satellite Maps
  • Weather Map
  • Weather Widgets
  • user-avatar
    Login

    Hourly Weather Kingston

    Today, 22 May, Wednesday

    Time Temperature Precipitation Wind Pressure Humidity
    00:00 +24°C° 0 mm 1 mps 706 mmHg 86%
    01:00 +24°C° 0 mm 1 mps 706 mmHg 87%
    02:00 +24°C° 0 mm 1 mps 706 mmHg 87%
    03:00 +23°C° 0 mm 1 mps 705 mmHg 87%
    04:00 +23°C° 0 mm 1 mps 705 mmHg 87%
    05:00 +24°C° 0 mm 1 mps 705 mmHg 86%
    06:00 +24°C° 0 mm 1 mps 706 mmHg 84%
    07:00 +24°C° 0 mm 2 mps 706 mmHg 82%
    08:00 +25°C° 0 mm 2 mps 706 mmHg 77%
    09:00 +26°C° 0 mm 2 mps 707 mmHg 72%
    10:00 +26°C° 0 mm 2 mps 707 mmHg 66%
    11:00 +27°C° 0.1 mm 2 mps 707 mmHg 65%
    12:00 +27°C° 0.1 mm 3 mps 707 mmHg 63%
    13:00 +27°C° 0.1 mm 3 mps 707 mmHg 62%
    14:00 +27°C° 0.1 mm 3 mps 706 mmHg 60%
    15:00 +28°C° 0.1 mm 3 mps 706 mmHg 58%
    16:00 +28°C° 0.1 mm 3 mps 706 mmHg 56%
    17:00 +26°C° 0 mm 2 mps 706 mmHg 61%
    18:00 +25°C° 0 mm 2 mps 705 mmHg 67%
    19:00 +24°C° 0 mm 1 mps 705 mmHg 72%
    20:00 +23°C° 0.1 mm 1 mps 706 mmHg 75%
    21:00 +23°C° 0.1 mm 1 mps 706 mmHg 78%
    22:00 +22°C° 0.1 mm 1 mps 706 mmHg 81%
    23:00 +22°C° 0.1 mm 1 mps 706 mmHg 83%

    Tomorrow, 23 May, Thursday

    Time Temperature Precipitation Wind Pressure Humidity
    00:00 +22°C° 0.1 mm 1 mps 706 mmHg 84%
    01:00 +22°C° 0.1 mm 1 mps 705 mmHg 86%
    02:00 +22°C° 0 mm 1 mps 705 mmHg 86%
    03:00 +22°C° 0 mm 1 mps 705 mmHg 87%
    04:00 +22°C° 0 mm 1 mps 705 mmHg 87%
    05:00 +23°C° 0 mm 1 mps 705 mmHg 84%
    06:00 +23°C° 0 mm 1 mps 705 mmHg 81%
    07:00 +24°C° 0 mm 1 mps 706 mmHg 77%
    08:00 +26°C° 0 mm 2 mps 706 mmHg 70%
    09:00 +28°C° 0 mm 2 mps 707 mmHg 62%
    10:00 +29°C° 0 mm 2 mps 707 mmHg 54%
    11:00 +30°C° 0.1 mm 2 mps 707 mmHg 53%
    12:00 +30°C° 0.1 mm 3 mps 707 mmHg 51%
    13:00 +31°C° 0.1 mm 3 mps 707 mmHg 50%
    14:00 +30°C° 0.3 mm 3 mps 706 mmHg 52%
    15:00 +30°C° 0.3 mm 3 mps 706 mmHg 54%
    16:00 +29°C° 0.3 mm 2 mps 705 mmHg 56%
    17:00 +28°C° 0.1 mm 2 mps 705 mmHg 64%
    18:00 +26°C° 0.1 mm 2 mps 705 mmHg 71%
    19:00 +25°C° 0.1 mm 1 mps 705 mmHg 79%
    20:00 +24°C° 0.1 mm 1 mps 706 mmHg 81%
    21:00 +24°C° 0.1 mm 1 mps 706 mmHg 84%
    22:00 +23°C° 0.1 mm 1 mps 706 mmHg 86%
    23:00 +23°C° 0 mm 1 mps 706 mmHg 87%

    Day after tomorrow, 24 May, Friday

    Time Temperature Precipitation Wind Pressure Humidity
    00:00 +23°C° 0 mm 1 mps 705 mmHg 87%
    01:00 +22°C° 0 mm 1 mps 705 mmHg 88%
    02:00 +22°C° 0 mm 1 mps 705 mmHg 88%
    03:00 +22°C° 0 mm 1 mps 704 mmHg 88%
    04:00 +22°C° 0 mm 1 mps 704 mmHg 88%
    05:00 +23°C° 0.1 mm 1 mps 704 mmHg 85%
    06:00 +24°C° 0.1 mm 1 mps 705 mmHg 81%
    07:00 +24°C° 0.1 mm 1 mps 705 mmHg 78%
    08:00 +26°C° 0 mm 2 mps 706 mmHg 69%
    09:00 +28°C° 0 mm 2 mps 706 mmHg 61%
    10:00 +30°C° 0 mm 2 mps 707 mmHg 52%
    11:00 +30°C° 0.5 mm 2 mps 707 mmHg 55%
    12:00 +30°C° 0.5 mm 3 mps 706 mmHg 58%
    13:00 +29°C° 0.5 mm 3 mps 706 mmHg 61%
    14:00 +29°C° 0.5 mm 3 mps 705 mmHg 62%
    15:00 +29°C° 0.5 mm 3 mps 705 mmHg 63%
    16:00 +28°C° 0.5 mm 2 mps 705 mmHg 64%
    17:00 +27°C° 0.3 mm 2 mps 705 mmHg 69%
    18:00 +26°C° 0.3 mm 2 mps 705 mmHg 74%
    19:00 +25°C° 0.3 mm 1 mps 705 mmHg 79%
    20:00 +24°C° 0.1 mm 1 mps 705 mmHg 81%
    21:00 +24°C° 0.1 mm 1 mps 706 mmHg 83%
    22:00 +24°C° 0.1 mm 1 mps 706 mmHg 85%
    23:00 +23°C° 0.1 mm 1 mps 706 mmHg 86%

    25 May, Saturday

    Time Temperature Precipitation Wind Pressure Humidity
    00:00 +23°C° 0.1 mm 1 mps 705 mmHg 87%
    01:00 +23°C° 0.1 mm 1 mps 705 mmHg 88%
    02:00 +23°C° 0.2 mm 1 mps 705 mmHg 88%
    03:00 +23°C° 0.2 mm 1 mps 704 mmHg 89%
    04:00 +23°C° 0.2 mm 1 mps 704 mmHg 89%
    05:00 +23°C° 0 mm 1 mps 705 mmHg 87%
    06:00 +24°C° 0 mm 1 mps 705 mmHg 85%
    07:00 +24°C° 0 mm 1 mps 705 mmHg 83%
    08:00 +25°C° 0.3 mm 2 mps 706 mmHg 77%
    09:00 +26°C° 0.3 mm 2 mps 706 mmHg 71%
    10:00 +27°C° 0.3 mm 2 mps 707 mmHg 65%
    11:00 +28°C° 0 mm 3 mps 706 mmHg 61%
    12:00 +29°C° 0 mm 3 mps 706 mmHg 56%
    13:00 +30°C° 0 mm 3 mps 706 mmHg 52%
    14:00 +30°C° 0.3 mm 3 mps 706 mmHg 55%
    15:00 +29°C° 0.3 mm 3 mps 705 mmHg 58%
    16:00 +29°C° 0.3 mm 3 mps 705 mmHg 60%
    17:00 +27°C° 0.3 mm 3 mps 705 mmHg 67%
    18:00 +26°C° 0.3 mm 2 mps 705 mmHg 74%
    19:00 +24°C° 0.3 mm 2 mps 705 mmHg 81%
    20:00 +24°C° 0.1 mm 2 mps 706 mmHg 82%
    21:00 +24°C° 0.1 mm 2 mps 706 mmHg 84%
    22:00 +23°C° 0.1 mm 1 mps 706 mmHg 86%
    23:00 +23°C° 0.1 mm 2 mps 706 mmHg 86%

    26 May, Sunday

    Time Temperature Precipitation Wind Pressure Humidity
    00:00 +23°C° 0.1 mm 2 mps 706 mmHg 86%
    01:00 +23°C° 0.1 mm 2 mps 705 mmHg 87%
    02:00 +23°C° 0.1 mm 2 mps 705 mmHg 87%
    03:00 +23°C° 0.1 mm 1 mps 705 mmHg 87%
    04:00 +23°C° 0.1 mm 1 mps 705 mmHg 87%
    05:00 +23°C° 0 mm 1 mps 705 mmHg 85%
    06:00 +24°C° 0 mm 2 mps 706 mmHg 83%
    07:00 +24°C° 0 mm 2 mps 706 mmHg 81%
    08:00 +26°C° 0.1 mm 2 mps 706 mmHg 74%
    09:00 +27°C° 0.1 mm 2 mps 707 mmHg 67%
    10:00 +28°C° 0.1 mm 3 mps 707 mmHg 60%
    11:00 +29°C° 0.2 mm 3 mps 707 mmHg 59%
    12:00 +29°C° 0.2 mm 3 mps 707 mmHg 57%
    13:00 +30°C° 0.2 mm 3 mps 706 mmHg 55%
    14:00 +29°C° 0.3 mm 3 mps 706 mmHg 58%
    15:00 +29°C° 0.3 mm 3 mps 706 mmHg 60%
    16:00 +28°C° 0.3 mm 3 mps 705 mmHg 62%
    17:00 +27°C° 0.3 mm 3 mps 705 mmHg 69%
    18:00 +26°C° 0.3 mm 2 mps 706 mmHg 75%
    19:00 +24°C° 0.3 mm 2 mps 706 mmHg 81%
    20:00 +24°C° 0.3 mm 2 mps 706 mmHg 83%
    21:00 +24°C° 0.3 mm 1 mps 706 mmHg 84%
    22:00 +24°C° 0.3 mm 1 mps 706 mmHg 86%
    23:00 +23°C° 0 mm 1 mps 706 mmHg 86%

    27 May, Monday

    Time Temperature Precipitation Wind Pressure Humidity
    00:00 +23°C° 0 mm 1 mps 706 mmHg 86%
    01:00 +23°C° 0 mm 1 mps 705 mmHg 87%
    02:00 +23°C° 0 mm 1 mps 705 mmHg 87%
    03:00 +23°C° 0 mm 1 mps 705 mmHg 87%
    04:00 +23°C° 0 mm 1 mps 704 mmHg 87%
    05:00 +23°C° 0 mm 2 mps 705 mmHg 85%
    06:00 +24°C° 0 mm 2 mps 705 mmHg 82%
    07:00 +25°C° 0 mm 2 mps 706 mmHg 80%
    08:00 +26°C° 0.1 mm 2 mps 706 mmHg 72%
    09:00 +28°C° 0.1 mm 3 mps 706 mmHg 64%
    10:00 +29°C° 0.1 mm 3 mps 707 mmHg 57%
    11:00 +30°C° 0.2 mm 3 mps 706 mmHg 56%
    12:00 +30°C° 0.2 mm 4 mps 706 mmHg 55%
    13:00 +30°C° 0.2 mm 4 mps 706 mmHg 54%
    14:00 +30°C° 0.5 mm 4 mps 705 mmHg 57%
    15:00 +29°C° 0.5 mm 3 mps 705 mmHg 60%
    16:00 +28°C° 0.5 mm 3 mps 704 mmHg 64%
    17:00 +27°C° 0.2 mm 3 mps 705 mmHg 69%
    18:00 +26°C° 0.2 mm 2 mps 705 mmHg 74%
    19:00 +25°C° 0.2 mm 1 mps 705 mmHg 80%
    20:00 +24°C° 0 mm 1 mps 705 mmHg 81%
    21:00 +24°C° 0 mm 1 mps 705 mmHg 83%
    22:00 +24°C° 0 mm 1 mps 705 mmHg 84%
    23:00 +23°C° 0.1 mm 1 mps 705 mmHg 85%
    Show more